Location: Wingville
(42.9917°N, 90.4915°W)
Time: 01:31:10
(UTC+00:00)

UWE-3 - Pass Details

Date: 09 July 2022
Orbit: 583 x 677 km, 97.7° (Epoch: 16 August)

Event Time Altitude Azimuth Distance (km) Brightness Sun altitude
Rises 09:49:42 0° 7° (N) 2,940 ? -7.1°
Reaches altitude 10° 09:51:55 10° 3° (N) 2,042 ? -6.8°
Maximum altitude 09:56:16 55° 287° (WNW) 789 ? -6.1°
Drops below altitude 10° 10:00:42 10° 210° (SSW) 2,078 ? -5.5°
Enters shadow 10:02:07 - 207° (SSW) 2,651 ? -5.3°
